{"data":{"norad_id":47821,"intl_designator":"2021-018AL","name":"STARLINK-2406","alt_names":[],"object_type":"PAYLOAD","status":"ACTIVE","operator":null,"country":"US","launch_date":"2021-03-11","launch_site_code":"AFETR","launch_vehicle":null,"mission":null,"orbit_class":"UNKNOWN","rcs_meters":null,"size_class":null,"mass_kg":null,"dimensions":null,"purposes":["comms"],"wikipedia_slug":null,"has_3d_model":false,"image_url":null,"decayed_at":null,"tle_current":{"epoch":"2026-09-20T00:45:52.838784Z","epoch_age_seconds":66330,"freshness":"FRESH","line1":"1 47821U 21018AL  26263.03186156  .00000343  00000+0  22836-4 0  9997","line2":"2 47821  53.1608  58.4840 0001201  83.3360 276.7778 15.31693088306505","mean_motion":15.31693088,"eccentricity":0.0001201,"inclination_deg":53.1608,"raan_deg":58.484,"arg_perigee_deg":83.336,"mean_anomaly_deg":276.7778,"bstar":2.2836e-5,"rev_number":30650,"period_min":94.01361221002,"perigee_km":469.93804701375,"apogee_km":471.58315221717,"semimajor_km":6848.8975996155,"source":"CELESTRAK","updated_at":"2026-09-20T09:00:38.749602Z"}}}